owner,sensor,date,latitude,longitude,vertical_datum,direction_of_sea_water_velocity,sea_water_speed,upward_sea_water_velocity,qcFlag 
TABS,ioos:station:wmo:42048:1,2004-10-01T00:00:00Z,27.9396,-96.8429,2.0,58.4362338,10.3162057,-99999.0,'11111222,11111222,99999999' 
TABS,ioos:station:wmo:42048:1,2004-10-01T00:30:00Z,27.9396,-96.8429,2.0,59.38383878,16.96495211,-99999.0,'11111222,11111222,99999999' 
TABS,ioos:station:wmo:42048:1,2004-10-01T01:00:00Z,27.9396,-96.8429,2.0,56.48244371,16.58838449,-99999.0,'11111222,11111222,99999999' 
TABS,ioos:station:wmo:42048:1,2004-10-01T01:30:00Z,27.9396,-96.8429,2.0,58.14494211,14.55170093,-99999.0,'11111222,11111222,99999999' 
TABS,ioos:station:wmo:42048:1,2004-10-01T02:00:00Z,27.9396,-96.8429,2.0,66.86224605,13.61517168,-99999.0,'11111222,11111222,99999999' 
TABS,ioos:station:wmo:42048:1,2004-10-01T02:30:00Z,27.9396,-96.8429,2.0,53.44399089,13.14619717,-99999.0,'11111222,11111222,99999999' 
TABS,ioos:station:wmo:42048:1,2004-10-01T03:00:00Z,27.9396,-96.8429,2.0,53.79430809,13.45890412,-99999.0,'11111222,11111222,99999999' 
TABS,ioos:station:wmo:42048:1,2004-10-01T03:30:00Z,27.9396,-96.8429,2.0,68.20834604,10.96345292,-99999.0,'11111222,11111222,99999999' 
TABS,ioos:station:wmo:42048:1,2004-10-01T04:00:00Z,27.9396,-96.8429,2.0,70.85121852,10.91386733,-99999.0,'11111222,11111222,99999999' 
TABS,ioos:station:wmo:42048:1,2004-10-01T04:30:00Z,27.9396,-96.8429,2.0,58.24824006,9.10229092,-99999.0,'11133222,11111222,99999999' 
TABS,ioos:station:wmo:42048:1,2004-10-01T05:00:00Z,27.9396,-96.8429,2.0,55.81124121,9.876811226,-99999.0,'11133222,11111222,99999999' 
TABS,ioos:station:wmo:42048:1,2004-10-01T05:30:00Z,27.9396,-96.8429,2.0,62.4890638,10.56462493,-99999.0,'11111222,11111222,99999999' 
TABS,ioos:station:wmo:42048:1,2004-10-01T06:00:00Z,27.9396,-96.8429,2.0,62.38703675,10.26974196,-99999.0,'11111222,11111222,99999999' 
TABS,ioos:station:wmo:42048:1,2004-10-01T06:30:00Z,27.9396,-96.8429,2.0,67.75832749,9.90713884,-99999.0,'11133222,11111222,99999999' 
TABS,ioos:station:wmo:42048:1,2004-10-01T07:00:00Z,27.9396,-96.8429,2.0,37.50661397,9.000555538,-99999.0,'11133222,11111222,99999999' 
TABS,ioos:station:wmo:42048:1,2004-10-01T07:30:00Z,27.9396,-96.8429,2.0,58.34356753,11.48953002,-99999.0,'11111222,11111222,99999999' 
TABS,ioos:station:wmo:42048:1,2004-10-01T08:00:00Z,27.9396,-96.8429,2.0,37.35634627,8.718314057,-99999.0,'11133222,11111222,99999999' 
TABS,ioos:station:wmo:42048:1,2004-10-01T08:30:00Z,27.9396,-96.8429,2.0,54.88807092,13.3002594,-99999.0,'11111222,11111222,99999999' 
TABS,ioos:station:wmo:42048:1,2004-10-01T09:00:00Z,27.9396,-96.8429,2.0,49.67674258,14.30998602,-99999.0,'11111222,11111222,99999999' 
TABS,ioos:station:wmo:42048:1,2004-10-01T09:30:00Z,27.9396,-96.8429,2.0,57.9272718,16.2147988,-99999.0,'11111222,11111222,99999999' 
TABS,ioos:station:wmo:42048:1,2004-10-01T10:00:00Z,27.9396,-96.8429,2.0,60.77842162,17.65708073,-99999.0,'11111222,11111222,99999999' 
TABS,ioos:station:wmo:42048:1,2004-10-01T10:30:00Z,27.9396,-96.8429,2.0,57.16339827,15.26981663,-99999.0,'11111222,11111222,99999999' 
TABS,ioos:station:wmo:42048:1,2004-10-01T11:00:00Z,27.9396,-96.8429,2.0,58.1906851,17.66284801,-99999.0,'11111222,11111222,99999999' 
TABS,ioos:station:wmo:42048:1,2004-10-01T11:30:00Z,27.9396,-96.8429,2.0,59.90272462,18.14662503,-99999.0,'11111222,11111222,99999999' 
TABS,ioos:station:wmo:42048:1,2004-10-01T12:00:00Z,27.9396,-96.8429,2.0,61.73334261,23.94543171,-99999.0,'11111222,11111222,99999999' 
TABS,ioos:station:wmo:42048:1,2004-10-01T12:30:00Z,27.9396,-96.8429,2.0,60.93042825,22.20748072,-99999.0,'11111222,11111222,99999999' 
TABS,ioos:station:wmo:42048:1,2004-10-01T13:00:00Z,27.9396,-96.8429,2.0,65.13808118,22.1200113,-99999.0,'11111222,11111222,99999999' 
TABS,ioos:station:wmo:42048:1,2004-10-01T13:30:00Z,27.9396,-96.8429,2.0,69.44730938,20.28089002,-99999.0,'11111222,11111222,99999999' 
TABS,ioos:station:wmo:42048:1,2004-10-01T14:00:00Z,27.9396,-96.8429,2.0,69.8882251,19.77586661,-99999.0,'11111222,11111222,99999999' 
TABS,ioos:station:wmo:42048:1,2004-10-01T14:30:00Z,27.9396,-96.8429,2.0,73.91181753,20.38849185,-99999.0,'11111222,11111222,99999999' 
TABS,ioos:station:wmo:42048:1,2004-10-01T15:00:00Z,27.9396,-96.8429,2.0,68.98361359,19.51841182,-99999.0,'11111222,11111222,99999999' 
TABS,ioos:station:wmo:42048:1,2004-10-01T15:30:00Z,27.9396,-96.8429,2.0,71.56509429,19.92234926,-99999.0,'11111222,11111222,99999999' 
TABS,ioos:station:wmo:42048:1,2004-10-01T16:00:00Z,27.9396,-96.8429,2.0,76.27076954,17.65442154,-99999.0,'11111222,11111222,99999999' 
TABS,ioos:station:wmo:42048:1,2004-10-01T16:30:00Z,27.9396,-96.8429,2.0,74.65218421,18.96640451,-99999.0,'11111222,11111222,99999999' 
TABS,ioos:station:wmo:42048:1,2004-10-01T17:00:00Z,27.9396,-96.8429,2.0,66.68234614,16.42121798,-99999.0,'11111222,11111222,99999999' 
TABS,ioos:station:wmo:42048:1,2004-10-01T17:30:00Z,27.9396,-96.8429,2.0,80.08349707,15.96857539,-99999.0,'11111222,11111222,99999999' 
TABS,ioos:station:wmo:42048:1,2004-10-01T18:00:00Z,27.9396,-96.8429,2.0,71.75466941,12.42465694,-99999.0,'11111222,11111222,99999999' 
TABS,ioos:station:wmo:42048:1,2004-10-01T18:30:00Z,27.9396,-96.8429,2.0,75.02077992,13.11567764,-99999.0,'11111222,11111222,99999999' 
TABS,ioos:station:wmo:42048:1,2004-10-01T19:00:00Z,27.9396,-96.8429,2.0,72.21478606,15.05973439,-99999.0,'11111222,11111222,99999999' 
TABS,ioos:station:wmo:42048:1,2004-10-01T19:30:00Z,27.9396,-96.8429,2.0,51.21572659,15.08642105,-99999.0,'11111222,11111222,99999999' 
TABS,ioos:station:wmo:42048:1,2004-10-01T20:00:00Z,27.9396,-96.8429,2.0,59.62921979,14.41865805,-99999.0,'11111222,11111222,99999999' 
TABS,ioos:station:wmo:42048:1,2004-10-01T20:30:00Z,27.9396,-96.8429,2.0,66.7477558,14.00777641,-99999.0,'11111222,11111222,99999999' 
TABS,ioos:station:wmo:42048:1,2004-10-01T21:00:00Z,27.9396,-96.8429,2.0,73.23793012,14.8405694,-99999.0,'11111222,11111222,99999999' 
TABS,ioos:station:wmo:42048:1,2004-10-01T21:30:00Z,27.9396,-96.8429,2.0,66.90208037,13.45893012,-99999.0,'11111222,11111222,99999999' 
TABS,ioos:station:wmo:42048:1,2004-10-01T22:00:00Z,27.9396,-96.8429,2.0,68.02965597,11.33303578,-99999.0,'11111222,11111222,99999999' 
TABS,ioos:station:wmo:42048:1,2004-10-01T22:30:00Z,27.9396,-96.8429,2.0,59.07589015,12.41478554,-99999.0,'11111222,11111222,99999999' 
TABS,ioos:station:wmo:42048:1,2004-10-01T23:00:00Z,27.9396,-96.8429,2.0,60.47583792,12.56109072,-99999.0,'11111222,11111222,99999999' 
TABS,ioos:station:wmo:42048:1,2004-10-01T23:30:00Z,27.9396,-96.8429,2.0,77.34872247,9.131708493,-99999.0,'11133222,11111222,99999999' 
TABS,ioos:station:wmo:42048:1,2004-10-02T00:00:00Z,27.9396,-96.8429,2.0,89.93805879,9.250005405,-99999.0,'11133222,11111222,99999999' 
TABS,ioos:station:wmo:42048:1,2004-10-02T00:30:00Z,27.9396,-96.8429,2.0,77.89104333,8.437736663,-99999.0,'11133222,11111222,99999999' 
TABS,ioos:station:wmo:42048:1,2004-10-02T01:00:00Z,27.9396,-96.8429,2.0,70.35971593,11.42467505,-99999.0,'11111222,11111222,99999999' 
TABS,ioos:station:wmo:42048:1,2004-10-02T01:30:00Z,27.9396,-96.8429,2.0,70.78840664,7.931721125,-99999.0,'11133222,11111222,99999999' 
TABS,ioos:station:wmo:42048:1,2004-10-02T02:00:00Z,27.9396,-96.8429,2.0,56.02996001,9.646351642,-99999.0,'11133222,11111222,99999999' 
TABS,ioos:station:wmo:42048:1,2004-10-02T02:30:00Z,27.9396,-96.8429,2.0,55.42981282,8.124543064,-99999.0,'11133222,11111222,99999999' 
TABS,ioos:station:wmo:42048:1,2004-10-02T03:00:00Z,27.9396,-96.8429,2.0,39.55023187,10.05099498,-99999.0,'11111222,11111222,99999999' 
TABS,ioos:station:wmo:42048:1,2004-10-02T03:30:00Z,27.9396,-96.8429,2.0,33.67797744,13.0021729,-99999.0,'11111222,11111222,99999999' 
TABS,ioos:station:wmo:42048:1,2004-10-02T04:00:00Z,27.9396,-96.8429,2.0,28.11103365,14.92000335,-99999.0,'11111222,11111222,99999999' 
TABS,ioos:station:wmo:42048:1,2004-10-02T04:30:00Z,27.9396,-96.8429,2.0,39.83316839,16.01741552,-99999.0,'11111222,11111222,99999999' 
TABS,ioos:station:wmo:42048:1,2004-10-02T05:00:00Z,27.9396,-96.8429,2.0,41.19321787,15.01672734,-99999.0,'11111222,11111222,99999999' 
TABS,ioos:station:wmo:42048:1,2004-10-02T05:30:00Z,27.9396,-96.8429,2.0,38.84935119,17.95071029,-99999.0,'11111222,11111222,99999999' 
TABS,ioos:station:wmo:42048:1,2004-10-02T06:00:00Z,27.9396,-96.8429,2.0,36.18788994,18.64732152,-99999.0,'11111222,11111222,99999999' 
TABS,ioos:station:wmo:42048:1,2004-10-02T06:30:00Z,27.9396,-96.8429,2.0,32.00836256,21.35683731,-99999.0,'11111222,11111222,99999999' 
TABS,ioos:station:wmo:42048:1,2004-10-02T07:00:00Z,27.9396,-96.8429,2.0,32.99393223,19.17185437,-99999.0,'11111222,11111222,99999999' 
TABS,ioos:station:wmo:42048:1,2004-10-02T07:30:00Z,27.9396,-96.8429,2.0,27.1151282,17.70600181,-99999.0,'11111222,11111222,99999999' 
TABS,ioos:station:wmo:42048:1,2004-10-02T08:00:00Z,27.9396,-96.8429,2.0,22.57214315,19.33077598,-99999.0,'11111222,11111222,99999999' 
TABS,ioos:station:wmo:42048:1,2004-10-02T08:30:00Z,27.9396,-96.8429,2.0,31.08764309,19.05696723,-99999.0,'11111222,11111222,99999999' 
TABS,ioos:station:wmo:42048:1,2004-10-02T09:00:00Z,27.9396,-96.8429,2.0,34.52639821,19.95469118,-99999.0,'11111222,11111222,99999999' 
TABS,ioos:station:wmo:42048:1,2004-10-02T09:30:00Z,27.9396,-96.8429,2.0,35.23686109,23.01734998,-99999.0,'11111222,11111222,99999999' 
TABS,ioos:station:wmo:42048:1,2004-10-02T10:00:00Z,27.9396,-96.8429,2.0,34.94829719,20.33743838,-99999.0,'11111222,11111222,99999999' 
TABS,ioos:station:wmo:42048:1,2004-10-02T10:30:00Z,27.9396,-96.8429,2.0,39.88969962,22.70352396,-99999.0,'11111222,11111222,99999999' 
TABS,ioos:station:wmo:42048:1,2004-10-02T11:00:00Z,27.9396,-96.8429,2.0,37.2105933,23.21641014,-99999.0,'11111222,11111222,99999999' 
TABS,ioos:station:wmo:42048:1,2004-10-02T11:30:00Z,27.9396,-96.8429,2.0,41.14746649,25.15205956,-99999.0,'11111222,11111222,99999999' 
TABS,ioos:station:wmo:42048:1,2004-10-02T12:00:00Z,27.9396,-96.8429,2.0,40.62931841,20.04112272,-99999.0,'11111222,11111222,99999999' 
TABS,ioos:station:wmo:42048:1,2004-10-02T12:30:00Z,27.9396,-96.8429,2.0,51.25934056,24.32096421,-99999.0,'11111222,11111222,99999999' 
TABS,ioos:station:wmo:42048:1,2004-10-02T13:00:00Z,27.9396,-96.8429,2.0,52.29385265,22.33437933,-99999.0,'11111222,11111222,99999999' 
TABS,ioos:station:wmo:42048:1,2004-10-02T13:30:00Z,27.9396,-96.8429,2.0,54.56149653,25.54196938,-99999.0,'11111222,11111222,99999999' 
TABS,ioos:station:wmo:42048:1,2004-10-02T14:00:00Z,27.9396,-96.8429,2.0,54.38190464,22.33933079,-99999.0,'11111222,11111222,99999999' 
TABS,ioos:station:wmo:42048:1,2004-10-02T14:30:00Z,27.9396,-96.8429,2.0,57.98654765,22.37231548,-99999.0,'11111222,11111222,99999999' 
TABS,ioos:station:wmo:42048:1,2004-10-02T15:00:00Z,27.9396,-96.8429,2.0,46.52223476,21.02970518,-99999.0,'11111222,11111222,99999999' 
TABS,ioos:station:wmo:42048:1,2004-10-02T15:30:00Z,27.9396,-96.8429,2.0,52.75057319,21.13046379,-99999.0,'11111222,11111222,99999999' 
TABS,ioos:station:wmo:42048:1,2004-10-02T16:00:00Z,27.9396,-96.8429,2.0,54.25054636,21.37808691,-99999.0,'11111222,11111222,99999999' 
TABS,ioos:station:wmo:42048:1,2004-10-02T16:30:00Z,27.9396,-96.8429,2.0,49.26938383,17.28723228,-99999.0,'11111222,11111222,99999999' 
TABS,ioos:station:wmo:42048:1,2004-10-02T17:00:00Z,27.9396,-96.8429,2.0,49.75856485,19.5197874,-99999.0,'11111222,11111222,99999999' 
TABS,ioos:station:wmo:42048:1,2004-10-02T17:30:00Z,27.9396,-96.8429,2.0,44.48730192,17.38138084,-99999.0,'11111222,11111222,99999999' 
TABS,ioos:station:wmo:42048:1,2004-10-02T18:00:00Z,27.9396,-96.8429,2.0,39.37848609,16.31363234,-99999.0,'11111222,11111222,99999999' 
TABS,ioos:station:wmo:42048:1,2004-10-02T18:30:00Z,27.9396,-96.8429,2.0,34.00039553,17.41784143,-99999.0,'11111222,11111222,99999999' 
TABS,ioos:station:wmo:42048:1,2004-10-02T19:00:00Z,27.9396,-96.8429,2.0,36.64671037,17.96013641,-99999.0,'11111222,11111222,99999999' 
TABS,ioos:station:wmo:42048:1,2004-10-02T19:30:00Z,27.9396,-96.8429,2.0,35.78204204,19.90758901,-99999.0,'11111222,11111222,99999999' 
TABS,ioos:station:wmo:42048:1,2004-10-02T20:00:00Z,27.9396,-96.8429,2.0,40.27290184,15.70168462,-99999.0,'11111222,11111222,99999999' 
TABS,ioos:station:wmo:42048:1,2004-10-02T20:30:00Z,27.9396,-96.8429,2.0,84.03552685,6.062821126,-99999.0,'11133222,11111222,99999999' 
TABS,ioos:station:wmo:42048:1,2004-10-02T21:00:00Z,27.9396,-96.8429,2.0,153.1867689,5.165365428,-99999.0,'11133222,11111222,99999999' 
TABS,ioos:station:wmo:42048:1,2004-10-02T21:30:00Z,27.9396,-96.8429,2.0,159.0189775,3.630716183,-99999.0,'11133222,11111222,99999999' 
TABS,ioos:station:wmo:42048:1,2004-10-02T22:00:00Z,27.9396,-96.8429,2.0,188.8986715,4.848360548,-99999.0,'11133222,11111222,99999999' 
TABS,ioos:station:wmo:42048:1,2004-10-02T22:30:00Z,27.9396,-96.8429,2.0,212.7173855,1.961147623,-99999.0,'11133222,11111222,99999999' 
TABS,ioos:station:wmo:42048:1,2004-10-02T23:00:00Z,27.9396,-96.8429,2.0,189.3852859,2.452835094,-99999.0,'11133222,11111222,99999999' 
TABS,ioos:station:wmo:42048:1,2004-10-02T23:30:00Z,27.9396,-96.8429,2.0,214.9061866,2.74361076,-99999.0,'11133222,11111222,99999999' 
TABS,ioos:station:wmo:42048:1,2004-10-03T00:00:00Z,27.9396,-96.8429,2.0,250.6951603,3.750893227,-99999.0,'11133222,11111222,99999999' 
TABS,ioos:station:wmo:42048:1,2004-10-03T00:30:00Z,27.9396,-96.8429,2.0,236.8095397,4.767829695,-99999.0,'11133222,11111222,99999999' 
TABS,ioos:station:wmo:42048:1,2004-10-03T01:00:00Z,27.9396,-96.8429,2.0,275.9210278,2.714479692,-99999.0,'11133222,11111222,99999999' 
TABS,ioos:station:wmo:42048:1,2004-10-03T01:30:00Z,27.9396,-96.8429,2.0,245.9209616,3.504982168,-99999.0,'11133222,11111222,99999999' 
TABS,ioos:station:wmo:42048:1,2004-10-03T02:00:00Z,27.9396,-96.8429,2.0,246.3440343,6.255637458,-99999.0,'11133222,11111222,99999999' 
TABS,ioos:station:wmo:42048:1,2004-10-03T02:30:00Z,27.9396,-96.8429,2.0,262.9748634,6.377875822,-99999.0,'11133222,11111222,99999999' 
TABS,ioos:station:wmo:42048:1,2004-10-03T03:00:00Z,27.9396,-96.8429,2.0,268.8041773,6.231356193,-99999.0,'11133222,11111222,99999999' 
TABS,ioos:station:wmo:42048:1,2004-10-03T03:30:00Z,27.9396,-96.8429,2.0,232.2505737,6.386751913,-99999.0,'11133222,11111222,99999999' 
TABS,ioos:station:wmo:42048:1,2004-10-03T04:00:00Z,27.9396,-96.8429,2.0,278.041605,7.291693905,-99999.0,'11133222,11111222,99999999' 
TABS,ioos:station:wmo:42048:1,2004-10-03T04:30:00Z,27.9396,-96.8429,2.0,275.2410625,4.48876375,-99999.0,'11133222,11111222,99999999' 
TABS,ioos:station:wmo:42048:1,2004-10-03T05:00:00Z,27.9396,-96.8429,2.0,231.4540786,8.617685304,-99999.0,'11133222,11111222,99999999' 
TABS,ioos:station:wmo:42048:1,2004-10-03T05:30:00Z,27.9396,-96.8429,2.0,232.3564201,8.890809862,-99999.0,'11133222,11111222,99999999' 
TABS,ioos:station:wmo:42048:1,2004-10-03T06:00:00Z,27.9396,-96.8429,2.0,246.2754094,8.301542025,-99999.0,'11133222,11111222,99999999' 
TABS,ioos:station:wmo:42048:1,2004-10-03T06:30:00Z,27.9396,-96.8429,2.0,259.1952098,8.001849786,-99999.0,'11133222,11111222,99999999' 
TABS,ioos:station:wmo:42048:1,2004-10-03T07:00:00Z,27.9396,-96.8429,2.0,246.6850338,5.836582904,-99999.0,'11133222,11111222,99999999' 
TABS,ioos:station:wmo:42048:1,2004-10-03T07:30:00Z,27.9396,-96.8429,2.0,238.3792883,5.836480104,-99999.0,'11133222,11111222,99999999' 
TABS,ioos:station:wmo:42048:1,2004-10-03T08:00:00Z,27.9396,-96.8429,2.0,263.3622994,5.53711116,-99999.0,'11133222,11111222,99999999' 
TABS,ioos:station:wmo:42048:1,2004-10-03T08:30:00Z,27.9396,-96.8429,2.0,259.5275752,6.437219897,-99999.0,'11133222,11111222,99999999' 
TABS,ioos:station:wmo:42048:1,2004-10-03T09:00:00Z,27.9396,-96.8429,2.0,254.9311262,4.577390086,-99999.0,'11133222,11111222,99999999' 
TABS,ioos:station:wmo:42048:1,2004-10-03T09:30:00Z,27.9396,-96.8429,2.0,245.0894209,6.813904901,-99999.0,'11133222,11111222,99999999' 
TABS,ioos:station:wmo:42048:1,2004-10-03T10:00:00Z,27.9396,-96.8429,2.0,254.4755044,2.989046671,-99999.0,'11133222,11111222,99999999' 
TABS,ioos:station:wmo:42048:1,2004-10-03T10:30:00Z,27.9396,-96.8429,2.0,216.0847782,3.65034245,-99999.0,'11133222,11111222,99999999' 
TABS,ioos:station:wmo:42048:1,2004-10-03T11:00:00Z,27.9396,-96.8429,2.0,219.7525577,2.783522948,-99999.0,'11133222,11111222,99999999' 
TABS,ioos:station:wmo:42048:1,2004-10-03T11:30:00Z,27.9396,-96.8429,2.0,137.6024509,2.18013761,-99999.0,'11133222,11111222,99999999' 
TABS,ioos:station:wmo:42048:1,2004-10-03T12:00:00Z,27.9396,-96.8429,2.0,175.6010945,4.82420978,-99999.0,'11133222,11111222,99999999' 
TABS,ioos:station:wmo:42048:1,2004-10-03T12:30:00Z,27.9396,-96.8429,2.0,182.9887781,6.328609642,-99999.0,'11133222,11111222,99999999' 
TABS,ioos:station:wmo:42048:1,2004-10-03T13:00:00Z,27.9396,-96.8429,2.0,193.7971453,4.654299088,-99999.0,'11133222,11111222,99999999' 
TABS,ioos:station:wmo:42048:1,2004-10-03T13:30:00Z,27.9396,-96.8429,2.0,190.582692,4.791502896,-99999.0,'11133222,11111222,99999999' 
TABS,ioos:station:wmo:42048:1,2004-10-03T14:00:00Z,27.9396,-96.8429,2.0,214.2189175,5.405783939,-99999.0,'11133222,11111222,99999999' 
TABS,ioos:station:wmo:42048:1,2004-10-03T14:30:00Z,27.9396,-96.8429,2.0,210.2698032,9.066079638,-99999.0,'11133222,11111222,99999999' 
TABS,ioos:station:wmo:42048:1,2004-10-03T15:00:00Z,27.9396,-96.8429,2.0,215.5891535,10.29257014,-99999.0,'11111222,11111222,99999999' 
TABS,ioos:station:wmo:42048:1,2004-10-03T15:30:00Z,27.9396,-96.8429,2.0,206.1911166,10.28613144,-99999.0,'11111222,11111222,99999999' 
TABS,ioos:station:wmo:42048:1,2004-10-03T16:00:00Z,27.9396,-96.8429,2.0,255.5737888,15.6948431,-99999.0,'11111222,11111222,99999999' 
TABS,ioos:station:wmo:42048:1,2004-10-03T16:30:00Z,27.9396,-96.8429,2.0,258.145645,14.45833324,-99999.0,'11111222,11111222,99999999' 
TABS,ioos:station:wmo:42048:1,2004-10-03T17:00:00Z,27.9396,-96.8429,2.0,254.5064928,15.83541916,-99999.0,'11111222,11111222,99999999' 
TABS,ioos:station:wmo:42048:1,2004-10-03T17:30:00Z,27.9396,-96.8429,2.0,244.0903056,15.63113879,-99999.0,'11111222,11111222,99999999' 
TABS,ioos:station:wmo:42048:1,2004-10-03T18:00:00Z,27.9396,-96.8429,2.0,247.1272447,12.91551006,-99999.0,'11111222,11111222,99999999' 
TABS,ioos:station:wmo:42048:1,2004-10-03T18:30:00Z,27.9396,-96.8429,2.0,245.1310035,12.84065808,-99999.0,'11111222,11111222,99999999' 
TABS,ioos:station:wmo:42048:1,2004-10-03T19:00:00Z,27.9396,-96.8429,2.0,253.8104107,14.2032109,-99999.0,'11111222,11111222,99999999' 
TABS,ioos:station:wmo:42048:1,2004-10-03T19:30:00Z,27.9396,-96.8429,2.0,255.7889235,14.33877261,-99999.0,'11111222,11111222,99999999' 
TABS,ioos:station:wmo:42048:1,2004-10-03T20:00:00Z,27.9396,-96.8429,2.0,262.6704785,14.97232781,-99999.0,'11111222,11111222,99999999' 
TABS,ioos:station:wmo:42048:1,2004-10-03T20:30:00Z,27.9396,-96.8429,2.0,249.0003512,19.36620768,-99999.0,'11111222,11111222,99999999' 
TABS,ioos:station:wmo:42048:1,2004-10-03T21:00:00Z,27.9396,-96.8429,2.0,257.4532683,21.26786308,-99999.0,'11111222,11111222,99999999' 
TABS,ioos:station:wmo:42048:1,2004-10-03T21:30:00Z,27.9396,-96.8429,2.0,261.5837831,20.70292974,-99999.0,'11111222,11111222,99999999' 
TABS,ioos:station:wmo:42048:1,2004-10-03T22:00:00Z,27.9396,-96.8429,2.0,261.8608382,18.71853093,-99999.0,'11111222,11111222,99999999' 
TABS,ioos:station:wmo:42048:1,2004-10-03T22:30:00Z,27.9396,-96.8429,2.0,258.5938931,17.59752539,-99999.0,'11111222,11111222,99999999' 
TABS,ioos:station:wmo:42048:1,2004-10-03T23:00:00Z,27.9396,-96.8429,2.0,261.4990549,19.68626425,-99999.0,'11111222,11111222,99999999' 
TABS,ioos:station:wmo:42048:1,2004-10-03T23:30:00Z,27.9396,-96.8429,2.0,260.7697144,19.45184824,-99999.0,'11111222,11111222,99999999' 
TABS,ioos:station:wmo:42048:1,2004-10-04T00:00:00Z,27.9396,-96.8429,2.0,252.7143582,19.38550231,-99999.0,'11111222,11111222,99999999' 
TABS,ioos:station:wmo:42048:1,2004-10-04T00:30:00Z,27.9396,-96.8429,2.0,249.250834,14.96028409,-99999.0,'11111222,11111222,99999999' 
TABS,ioos:station:wmo:42048:1,2004-10-04T01:00:00Z,27.9396,-96.8429,2.0,253.0146652,10.3724298,-99999.0,'11111222,11111222,99999999' 
TABS,ioos:station:wmo:42048:1,2004-10-04T01:30:00Z,27.9396,-96.8429,2.0,246.7063841,16.69038346,-99999.0,'11111222,11111222,99999999' 
TABS,ioos:station:wmo:42048:1,2004-10-04T02:00:00Z,27.9396,-96.8429,2.0,246.6690722,14.82190946,-99999.0,'11111222,11111222,99999999' 
TABS,ioos:station:wmo:42048:1,2004-10-04T02:30:00Z,27.9396,-96.8429,2.0,242.3608005,16.94342645,-99999.0,'11111222,11111222,99999999' 
TABS,ioos:station:wmo:42048:1,2004-10-04T03:00:00Z,27.9396,-96.8429,2.0,244.4347089,13.57947348,-99999.0,'11111222,11111222,99999999' 
TABS,ioos:station:wmo:42048:1,2004-10-04T03:30:00Z,27.9396,-96.8429,2.0,228.234823,13.40689748,-99999.0,'11111222,11111222,99999999' 
TABS,ioos:station:wmo:42048:1,2004-10-04T04:00:00Z,27.9396,-96.8429,2.0,213.5119341,10.72240645,-99999.0,'11111222,11111222,99999999' 
TABS,ioos:station:wmo:42048:1,2004-10-04T04:30:00Z,27.9396,-96.8429,2.0,224.197464,12.12099831,-99999.0,'11111222,11111222,99999999' 
TABS,ioos:station:wmo:42048:1,2004-10-04T05:00:00Z,27.9396,-96.8429,2.0,215.4330207,10.84941012,-99999.0,'11111222,11111222,99999999' 
TABS,ioos:station:wmo:42048:1,2004-10-04T05:30:00Z,27.9396,-96.8429,2.0,223.3121962,12.72637026,-99999.0,'11111222,11111222,99999999' 
TABS,ioos:station:wmo:42048:1,2004-10-04T06:00:00Z,27.9396,-96.8429,2.0,221.743743,10.33336828,-99999.0,'11111222,11111222,99999999' 
TABS,ioos:station:wmo:42048:1,2004-10-04T06:30:00Z,27.9396,-96.8429,2.0,213.0078959,10.72034048,-99999.0,'11111222,11111222,99999999' 
TABS,ioos:station:wmo:42048:1,2004-10-04T07:00:00Z,27.9396,-96.8429,2.0,204.6184492,8.953909761,-99999.0,'11133222,11111222,99999999' 
TABS,ioos:station:wmo:42048:1,2004-10-04T07:30:00Z,27.9396,-96.8429,2.0,192.4931894,7.026378868,-99999.0,'11133222,11111222,99999999' 
TABS,ioos:station:wmo:42048:1,2004-10-04T08:00:00Z,27.9396,-96.8429,2.0,193.099602,6.529931087,-99999.0,'11133222,11111222,99999999' 
TABS,ioos:station:wmo:42048:1,2004-10-04T08:30:00Z,27.9396,-96.8429,2.0,177.7221859,8.806957477,-99999.0,'11133222,11111222,99999999' 
TABS,ioos:station:wmo:42048:1,2004-10-04T09:00:00Z,27.9396,-96.8429,2.0,165.0279565,6.386814542,-99999.0,'11133222,11111222,99999999' 
TABS,ioos:station:wmo:42048:1,2004-10-04T09:30:00Z,27.9396,-96.8429,2.0,161.2633306,12.01682154,-99999.0,'11111222,11111222,99999999' 
TABS,ioos:station:wmo:42048:1,2004-10-04T10:00:00Z,27.9396,-96.8429,2.0,158.4746064,14.25413975,-99999.0,'11111222,11111222,99999999' 
TABS,ioos:station:wmo:42048:1,2004-10-04T10:30:00Z,27.9396,-96.8429,2.0,157.7654584,16.46421878,-99999.0,'11111222,11111222,99999999' 
TABS,ioos:station:wmo:42048:1,2004-10-04T11:00:00Z,27.9396,-96.8429,2.0,153.187762,14.52116042,-99999.0,'11111222,11111222,99999999' 
TABS,ioos:station:wmo:42048:1,2004-10-04T11:30:00Z,27.9396,-96.8429,2.0,159.4992385,16.93235069,-99999.0,'11111222,11111222,99999999' 
TABS,ioos:station:wmo:42048:1,2004-10-04T12:00:00Z,27.9396,-96.8429,2.0,154.8480829,16.68166958,-99999.0,'11111222,11111222,99999999' 
TABS,ioos:station:wmo:42048:1,2004-10-04T12:30:00Z,27.9396,-96.8429,2.0,153.3203238,13.42985108,-99999.0,'11111222,11111222,99999999' 
TABS,ioos:station:wmo:42048:1,2004-10-04T13:00:00Z,27.9396,-96.8429,2.0,150.6556401,16.14103466,-99999.0,'11111222,11111222,99999999' 
TABS,ioos:station:wmo:42048:1,2004-10-04T13:30:00Z,27.9396,-96.8429,2.0,153.2724903,17.36537359,-99999.0,'11111222,11111222,99999999' 
TABS,ioos:station:wmo:42048:1,2004-10-04T14:00:00Z,27.9396,-96.8429,2.0,144.7033536,19.88549723,-99999.0,'11111222,11111222,99999999' 
TABS,ioos:station:wmo:42048:1,2004-10-04T14:30:00Z,27.9396,-96.8429,2.0,156.8178679,18.11241011,-99999.0,'11111222,11111222,99999999' 
TABS,ioos:station:wmo:42048:1,2004-10-04T15:00:00Z,27.9396,-96.8429,2.0,152.3843633,15.85638673,-99999.0,'11111222,11111222,99999999' 
TABS,ioos:station:wmo:42048:1,2004-10-04T15:30:00Z,27.9396,-96.8429,2.0,159.952465,13.71074032,-99999.0,'11111222,11111222,99999999' 
TABS,ioos:station:wmo:42048:1,2004-10-04T16:00:00Z,27.9396,-96.8429,2.0,157.9067194,14.22444727,-99999.0,'11111222,11111222,99999999' 